{"data":{"norad_id":44506,"epoch":"2026-05-24T22:53:31.877088Z","epoch_age_seconds":72361,"freshness":"FRESH","line1":"1 44506U 19056A   26144.95384117 -.00000086  00000+0  00000+0 0  9998","line2":"2 44506  55.6489 332.0651 0060834 197.3398 333.9968  2.00569566 49608","mean_motion":2.00569566,"eccentricity":0.0060834,"inclination_deg":55.6489,"raan_deg":332.0651,"arg_perigee_deg":197.3398,"mean_anomaly_deg":333.9968,"bstar":0,"rev_number":4960,"period_min":717.95538511561,"perigee_km":20020.110453293,"apogee_km":20343.258489169,"semimajor_km":26559.821471231,"source":"CELESTRAK","updated_at":"2026-05-25T13:38:23.766527Z"}}